Flag for France Weather past 2 weeks in Ajaccio, Corsica, France

Now
59 °F

Passing clouds.


Feels Like: 60 °F
Forecast: 53 / 67 °F
Wind: 3 mph from North

Location: Ajaccio Airport

Current Time: May 25, 2015 at 12:34:01 AM

Latest Report: May 24, 2015 at 11:30 PM


Visibility: N/A

Pressure: 29.98 "Hg

Humidity: 77%

Dew point: 52 °F

Location of AjaccioLocation

Historic Weather in Ajaccio — Graph

°F

Ajaccio temperature yesterday

Maximum temperature yesterday: 72 °F (at 12:30 PM)
Minimum temperature yesterday: 59 °F (at 2:30 AM)
Average temperature yesterday: 65 °F

Past Weeks' High & Low Weather Summary

 TemperatureHumidityPressure
High77 °F (May 11, 5:00 PM)94% (May 9, 11:00 PM)30.27 "Hg (May 9, 11:00 PM)
Low48 °F (May 21, 4:00 AM)36% (May 14, 9:30 AM)29.71 "Hg (May 15, 5:00 AM)
Average64 °F68%29.99 "Hg
* Reported May 9 11:00 PM — May 24 11:00 PM, Ajaccio, Weather by CustomWeather, © 2015

Note: Actual official high and low records may vary slightly from our data, if they occured in-between our weather recording intervals... More about our weather records

Advertising

Ajaccio weather history for previous 24 hours

 ConditionsComfort  
Time TempWeatherWind HumidityBarometerVisibility
11:00 PM
Sun, May 24
59 °FClear.8 mph72%29.98 "Hg10 mi
10:30 PM64 °FPassing clouds.5 mph78%29.98 "HgN/A
10:00 PM63 °FClear.No wind77%29.98 "Hg10 mi
9:30 PM64 °FSunny.3 mph73%29.95 "Hg10 mi
9:00 PM64 °FSunny.5 mph73%29.95 "Hg10 mi
8:30 PM66 °FPassing clouds.3 mph68%29.95 "HgN/A
8:00 PM68 °FScattered clouds.No wind56%29.95 "HgN/A
7:30 PM68 °FPartly sunny.2 mph64%29.95 "HgN/A
7:00 PM66 °FOvercast.5 mph64%29.92 "HgN/A
6:30 PM68 °FMostly cloudy.6 mph64%29.92 "HgN/A
6:00 PM68 °FPartly sunny.8 mph64%29.95 "HgN/A
5:30 PM72 °FPassing clouds.8 mph57%29.95 "HgN/A
5:00 PM70 °FPassing clouds.8 mph60%29.95 "HgN/A
4:30 PM72 °FPassing clouds.9 mph61%29.95 "HgN/A
4:00 PM70 °FScattered showers. Passing clouds.9 mph64%29.95 "HgN/A
3:30 PM72 °FPassing clouds.10 mph61%29.95 "HgN/A
3:00 PM72 °FPassing clouds.10 mph61%29.95 "HgN/A
2:30 PM72 °FPassing clouds.10 mph61%29.95 "HgN/A
2:00 PM70 °FPassing clouds.12 mph64%29.95 "HgN/A
1:30 PM72 °FPassing clouds.9 mph61%29.95 "HgN/A
1:00 PM70 °FPassing clouds.9 mph69%29.95 "HgN/A
12:30 PM72 °FPassing clouds.10 mph65%29.95 "HgN/A
12:00 PM70 °FPassing clouds.10 mph64%29.95 "HgN/A
11:30 AM70 °FPassing clouds.10 mph60%29.92 "HgN/A
11:00 AM68 °FPassing clouds.7 mph69%29.92 "HgN/A
10:30 AM66 °FScattered clouds.6 mph73%29.92 "HgN/A
10:00 AM64 °FBroken clouds.2 mph78%29.92 "HgN/A
9:30 AM63 °FPartly sunny.1 mph77%29.92 "HgN/A
9:00 AM61 °FOvercast.2 mph83%29.89 "HgN/A
8:30 AM61 °FOvercast.3 mph83%29.92 "HgN/A
8:00 AM59 °FOvercast.3 mph82%29.89 "HgN/A
7:30 AM59 °FMore clouds than sun.3 mph82%29.89 "HgN/A
7:00 AM59 °FOvercast.5 mph82%29.89 "HgN/A
6:30 AM59 °FOvercast.6 mph82%29.89 "HgN/A
6:00 AM59 °FOvercast.5 mph82%29.89 "HgN/A
5:30 AM59 °FMostly cloudy.5 mph82%29.89 "HgN/A
4:30 AM59 °FOvercast.2 mph82%29.89 "HgN/A
4:00 AM59 °FOvercast.3 mph82%29.89 "HgN/A
3:30 AM59 °FMostly cloudy.2 mph82%29.89 "HgN/A
3:00 AM59 °FMostly cloudy.5 mph82%29.89 "HgN/A
2:30 AM59 °FMostly cloudy.3 mph82%29.89 "HgN/A
2:00 AM61 °FPassing clouds.5 mph77%29.89 "HgN/A
1:30 AM61 °FPartly cloudy.3 mph77%29.89 "HgN/A
1:00 AM61 °FMostly cloudy.2 mph77%29.89 "HgN/A
12:30 AM61 °FMostly cloudy.3 mph77%29.89 "HgN/A
12:00 AM61 °FOvercast.3 mph77%29.89 "HgN/A
Weather by CustomWeather, © 2015

See weather overviewHow to use our weather pages